Location: Newark
(44.4156°N, 12.1972°E)
Time: 02:06:28
(UTC+00:00)

STARLINK-1095 - Pass Details

Date: 01 February 2020
Orbit: 348 x 351 km, 53.0° (Epoch: 17 February)

Event Time Altitude Azimuth Distance (km) Brightness Sun altitude
Rises 17:22:51 0° 302° (WNW) 2,168 7.4 -11.5°
Reaches altitude 10° 17:24:52 10° 299° (WNW) 1,322 6.3 -11.9°
Maximum altitude 17:27:47 65° 217° (SW) 391 3.0 -12.4°
Enters shadow 17:30:33 11° 135° (SE) 1,254 5.1 -12.9°
